This demonstration page uses our WeatherBlox Daily Observations layout. Learn more.

Left ArrowRight Arrow

Hourly Observations for December 9, 2019

Temp ( °F °C ) Dew Point ( °F °C ) Humidity (%) Winds ( mph kmh ) Pressure ( in mb ) Visibility ( mi km ) Precip ( " mm )
12:56 am 00:56 Cloudy 37 3 34 1 87 87 VRB 7 11 29.63 1003 10 16 0.00 0.00
1:56 am 01:56 Mostly Cloudy 37 3 36 2 93 93 ESE 7 11 29.63 1003 10 16 0.00 0.00
2:56 am 02:56 Mostly Cloudy 36 2 34 1 93 93 WNW 10 17 29.64 1004 10 16 0.00 0.00
3:56 am 03:56 Mostly Cloudy 36 2 34 1 93 93 WNW 10 17 29.63 1003 10 16 0.00 0.00
4:56 am 04:56 Cloudy 36 2 34 1 93 93 NW 18 30 29.69 1006 10 16 0.00 0.00
5:56 am 05:56 Cloudy 28 -2 25 -4 86 86 NW 26 43 29.74 1007 10 16 0.00 0.00
6:56 am 06:56 Cloudy 23 -5 14 -10 68 68 NNW 26 43 29.83 1010 10 16 0.00 0.00
7:43 am 07:43 Mostly Cloudy with Light Snow 18 -8 10 -12 73 73 NW 21 33 29.88 1012 2 3 0.00 0.00
7:46 am 07:46 Mostly Cloudy with Snow 18 -8 10 -12 73 73 NW 26 43 29.89 1012 1 2 0.00 0.00
7:56 am 07:56 Mostly Cloudy with Snow 18 -8 12 -11 79 79 NW 21 33 29.89 1012 1 2 0.00 0.00
8:56 am 08:56 Mostly Cloudy with Light Snow N/A N/A N/A NW 14 22 29.92 1013 1 2 0.00 0.00
9:11 am 09:11 Mostly Cloudy with Blowing Snow 16 -9 10 -12 79 79 NW 17 28 29.93 1013 2 3 0.00 0.00
9:42 am 09:42 Partly Cloudy with Blowing Snow 16 -9 9 -13 73 73 NNW 23 37 29.95 1014 4 6 0.00 0.00
9:56 am 09:56 Partly Cloudy with Blowing Snow N/A N/A N/A NNW 25 41 29.96 1015 6 10 0.00 0.00
10:56 am 10:56 Partly Cloudy 18 -8 9 -13 68 68 NW 20 31 30.00 1016 7 11 0.00 0.00
11:56 am 11:56 Mostly Sunny 19 -7 9 -13 63 63 NNW 22 35 29.99 1016 10 16 0.00 0.00
12:56 pm 12:56 Mostly Sunny 19 -7 9 -13 63 63 NW 20 31 30.01 1016 10 16 0.00 0.00
1:56 pm 13:56 Sunny 19 -7 7 -14 58 58 NW 24 39 30.01 1016 10 16 0.00 0.00
2:56 pm 14:56 Sunny 21 -6 9 -13 58 58 NW 17 28 30.05 1018 10 16 0.00 0.00
3:56 pm 15:56 Sunny 19 -7 7 -14 58 58 NW 12 19 30.08 1019 10 16 0.00 0.00
4:56 pm 16:56 Clear 19 -7 7 -14 58 58 NW 10 17 30.12 1020 10 16 0.00 0.00
5:56 pm 17:56 Clear 18 -8 9 -13 68 68 NW 9 15 30.14 1021 10 16 0.00 0.00
6:56 pm 18:56 Clear 18 -8 9 -13 68 68 NW 6 9 30.14 1021 10 16 0.00 0.00
7:56 pm 19:56 Clear 16 -9 9 -13 73 73 Calm 30.15 1021 10 16 0.00 0.00
8:56 pm 20:56 Clear 18 -8 9 -13 68 68 WSW 3 6 30.16 1021 10 16 0.00 0.00
9:56 pm 21:56 Clear 16 -9 9 -13 73 73 W 5 7 30.18 1022 10 16 0.00 0.00
10:56 pm 22:56 Clear 18 -8 9 -13 68 68 VRB 6 9 30.18 1022 10 16 0.00 0.00
11:56 pm 23:56 Clear 16 -9 9 -13 73 73 VRB 6 9 30.19 1022 10 16 0.00 0.00

Powered by AerisWeather